Location: Camp at the Woods
(43.2055°N, 93.0905°W)
Time: 06:35:48
(UTC+00:00)

Cosmos 2219 Rocket - Pass Details

Date: 05 December 2023
Orbit: 828 x 845 km, 71.0° (Epoch: 29 February)

Event Time Altitude Azimuth Distance (km) Brightness Sun altitude
Exits shadow 12:41:26 - 273° (W) 2,583 4.1 -8.5°
Reaches altitude 10° 12:41:59 10° 278° (W) 2,460 4.0 -8.4°
Maximum altitude 12:45:21 16° 315° (NW) 2,074 3.7 -7.8°
Drops below altitude 10° 12:48:45 10° 352° (N) 2,473 4.3 -7.3°
Sets 12:52:16 0° 14° (NNE) 3,413 5.2 -6.7°
